User: anonymous   Login
Location: ??????
(38.0131°N, 23.7723°E)
Time: 18:46:42
(UTC+00:00)
Language:

Okean-O - Orbit

View from above orbital plane
View from above orbital plane
View from above satellite
View from above satellite

Ground track
Ground track

The orbit data is extracted from the following two-line orbital elements,

1 25860U 99039A   22017.36976434  .00000288  00000-0  48641-4 0  9990
2 25860  98.1601  55.7716 0001457 112.6798 247.4566 14.76811474211045
Epoch (UTC): 17 January 2022 08:52:27
Eccentricity: 0.0001457
inclination: 98.1601°
perigee height: 638 km
apogee height: 640 km
right ascension of ascending node: 55.7716°
argument of perigee: 112.6798°
revolutions per day: 14.76811474
mean anomaly at epoch: 247.4566°
orbit number at epoch: 21104

The dashed part of the orbit path shows where the satellite is in the earth's shadow,  

DLR